Change the Weather History Date:

Thursday, October 25, 2012

  Actual Average Record
Temperature  
Mean Temperature 70 °F -  
Max Temperature 80 °F 57 °F 80 °F (2012)
Min Temperature 61 °F 44 °F 37 °F (1999)
Cooling Degree Days 6    
Growing Degree Days 20 (Base 50)    
Moisture  
Dew Point 49 °F    
Average Humidity 49    
Maximum Humidity 70    
Minimum Humidity 27    
Precipitation  
Precipitation 0.00 in - - ()
Sea Level Pressure  
Sea Level Pressure 29.99 in    
Wind  
Wind Speed 10 mph (South)    
Max Wind Speed 15 mph    
Max Gust Speed 28 mph    
Visibility 10 miles    
Events      
Averages and records for this station are not official NWS values.
T = Trace of Precipitation, MM = Missing Value Source: NWS Daily Summary

Daily Weather History Graph

Daily Weather History Graph

Search for Another Location

Airport or City:

Trip Planner

Search our weather history database for the weather conditions in past years. The results will help you decide how hot, cold, wet, or windy it might be!

Date:

Astronomy

Oct. 25, 2012 Rise Set
Actual Time 7:50 AM EDT 6:30 PM EDT
Civil Twilight 7:22 AM EDT 6:58 PM EDT
Nautical Twilight 6:49 AM EDT 7:30 PM EDT
Astronomical Twilight 6:17 AM EDT 8:03 PM EDT
Moon 4:17 PM EDT (10/25) 3:43 AM EDT (10/25)
Length of Visible Light 11h 36m
Length of Day
10h 39m
Waxing Gibbous, 84% of the Moon is Illuminated
Oct 25
Waxing Gibbous
Oct 29
Full
Nov 6
Last Quarter
Nov 13
New
Nov 20
First Quarter

Hourly Weather History & Observations

Time (EDT) Temp. Dew Point Humidity Pressure Visibility Wind Dir Wind Speed Gust Speed Precip Events Conditions
12:53 AM 64.0 °F 53.1 °F 67% 30.03 in 10.0 mi SSE 5.8 mph - N/A   Clear
1:53 AM 64.0 °F 52.0 °F 65% 30.03 in 10.0 mi SSE 9.2 mph - N/A   Clear
2:53 AM 64.0 °F 52.0 °F 65% 30.02 in 10.0 mi South 10.4 mph - N/A   Clear
3:53 AM 62.1 °F 52.0 °F 70% 30.02 in 10.0 mi SSE 9.2 mph - N/A   Clear
4:53 AM 62.1 °F 51.1 °F 67% 30.03 in 10.0 mi SSE 9.2 mph - N/A   Partly Cloudy
5:53 AM 62.1 °F 51.1 °F 67% 30.04 in 10.0 mi SSE 11.5 mph - N/A   Mostly Cloudy
6:53 AM 62.1 °F 50.0 °F 65% 30.04 in 10.0 mi SSE 11.5 mph - N/A   Overcast
7:53 AM 61.0 °F 50.0 °F 67% 30.04 in 10.0 mi SSE 9.2 mph - N/A   Clear
8:53 AM 62.1 °F 50.0 °F 65% 30.04 in 10.0 mi SSE 11.5 mph - N/A   Clear
10:53 AM 71.1 °F 51.1 °F 49% 30.04 in 10.0 mi SSE 10.4 mph - N/A   Clear
12:53 PM 78.1 °F 48.9 °F 36% 30.01 in 10.0 mi South 11.5 mph 20.7 mph N/A   Clear
1:53 PM 79.0 °F 50.0 °F 36% 29.98 in 10.0 mi SSW 15.0 mph 21.9 mph N/A   Clear
2:53 PM 80.1 °F 46.9 °F 31% 29.95 in 10.0 mi South 15.0 mph 27.6 mph N/A   Clear
3:53 PM 80.1 °F 43.0 °F 27% 29.94 in 10.0 mi South 13.8 mph 24.2 mph N/A   Clear
4:53 PM 79.0 °F 44.1 °F 29% 29.93 in 10.0 mi South 11.5 mph - N/A   Clear
5:53 PM 78.1 °F 44.1 °F 30% 29.93 in 10.0 mi South 10.4 mph 18.4 mph N/A   Clear
6:53 PM 75.9 °F 45.0 °F 33% 29.93 in 10.0 mi South 9.2 mph - N/A   Clear
7:53 PM 73.9 °F 46.0 °F 37% 29.94 in 10.0 mi South 8.1 mph - N/A   Clear
9:53 PM 71.1 °F 46.9 °F 42% 29.92 in 10.0 mi South 9.2 mph - N/A   Clear
10:53 PM 71.1 °F 46.9 °F 42% 29.92 in 10.0 mi South 8.1 mph - N/A   Clear
11:53 PM 71.1 °F 46.9 °F 42% 29.91 in 10.0 mi South 8.1 mph - N/A   Clear